Regional Weather Roundup
Issued by NWS

Home | Current Version | Previous Version | Graphics & Text | Print | Product List | Glossary On
Versions: 1 2 3 4 5 6 7 8 9 10 11 12 13 14 15 16 17 18 19 20 21 22 23 24 25 26 27 28 29 30 31 32 33 34 35 36 37 38 39 40 41 42 43 44 45 46 47 48 49 50
000
ASUS43 KLMK 251810
RWRKY
KENTUCKY REGIONAL WEATHER ROUNDUP
NATIONAL WEATHER SERVICE LOUISVILLE KY
200 PM EDT SAT MAR 25 2017

NOTE "FAIR" INDICATES FEW OR NO CLOUDS BELOW 12,000 FEET
WITH NO SIGNIFICANT WEATHER AND/OR OBSTRUCTIONS TO VISIBILITY.

KYZ001>023-026-027-061>063-070>075-251900-
WESTERN AND SOUTH CENTRAL KENTUCKY

CITY           SKY/WX    TMP DP  RH WIND       PRES   REMARKS
PADUCAH        CLOUDY    66  56  70 S16G23    29.94S
HENDERSON      PTSUNNY   72  52  49 S20       29.95F
OWENSBORO      LGT RAIN  72  54  53 S18G28    29.99S
HOPKINSVILLE   FAIR      71  52  50 S17G28    29.99F
BOWLING GREEN  FAIR      75  51  43 S24G31    30.04F
GLASGOW        FAIR      73  49  43 S14G24    30.07S
$$

KYZ024-025-028>034-038-045-046-053-251900-
NORTH CENTRAL KENTUCKY

CITY           SKY/WX    TMP DP  RH WIND       PRES   REMARKS
LOUISVILLE/SDF CLOUDY    77  47  34 S22G30    30.04F
LOUISVILLE/LOU FAIR      76  50  40 S12G26    30.04F
FORT KNOX      FAIR      77  51  40 S21G28    30.02F
$$

KYZ035>037-039>044-047>052-055>060-089>105-251900-
NORTHEAST KENTUCKY

CITY           SKY/WX    TMP DP  RH WIND       PRES   REMARKS
LEXINGTON      FAIR      76  49  38 S15       30.11F
COVINGTON      PTSUNNY   74  52  46 S15       30.08F
FRANKFORT      FAIR      76  48  37 SE17G25   30.07F
$$

KYZ054-064>069-076>088-106>120-251900-
SOUTHEAST KENTUCKY

CITY           SKY/WX    TMP DP  RH WIND       PRES   REMARKS
JACKSON        FAIR      75  47  36 VRB3      30.15F
LONDON         FAIR      72  47  40 SE12G20   30.14F
SOMERSET       FAIR      70  48  46 S13G20    30.13F
MIDDLESBORO    FAIR      71  50  46 S15       30.17F
MONTICELLO     FAIR      72  53  51 SE12      30.14F
$$




USA.gov is the U.S. government's official web portal to all federal, state and local government web resources and services.